Overview Statistics Trail Chart Weather Telemetry Raw packets
 

This is the latest recevied weather packets stored in our database for station/object KI4NG. If no packets are shown the sender has not sent any weather packets the latest 10 day(s).

<< 49 50 51 52 53 54 55 >>
Time Temp. Humidity Pressure Rain* Wind** Luminosity Snow
1788286677 32.22° C 63% 1022.2 hPa 0 mm - 232 W/m² -
1788286372 33.33° C 59% 1022.3 hPa 0 mm - 246 W/m² -
1788286071 33.89° C 60% 1022.1 hPa 0 mm - 814 W/m² -
1788285770 32.78° C 59% 1022.3 hPa 0 mm - 813 W/m² -
1788285470 31.67° C 65% 1022.2 hPa 0 mm - 822 W/m² -
1788285164 31.67° C 64% 1022.3 hPa 0 mm - 835 W/m² -
1788284859 32.78° C 61% 1022.3 hPa 0 mm - 216 W/m² -
1788284575 32.22° C 64% 1022.2 hPa 0 mm - 754 W/m² -
1788284251 31.67° C 63% 1022.3 hPa 0 mm - 213 W/m² -
1788283945 31.67° C 63% 1022.7 hPa 0 mm - 210 W/m² -
1788283642 32.22° C 64% 1022.7 hPa 0 mm - 817 W/m² -
1788283340 31.67° C 68% 1022.7 hPa 0 mm - 500 W/m² -
1788283038 30.56° C 67% 1022.8 hPa 0 mm - 269 W/m² -
1788282733 30.56° C 66% 1022.9 hPa 0 mm - 193 W/m² -
1788282432 31.11° C 63% 1022.9 hPa 0 mm - 272 W/m² -
1788282127 31.67° C 65% 1023.1 hPa 0 mm - 867 W/m² -
1788281826 30.56° C 69% 1023.1 hPa 0 mm - 847 W/m² -
1788281521 30° C 68% 1023.1 hPa 0 mm - 216 W/m² -
1788281217 30° C 69% 1023.2 hPa 0 mm - 363 W/m² -
1788280912 30° C 70% 1023.3 hPa 0 mm - 205 W/m² -
1788280607 30° C 69% 1023.2 hPa 0 mm - 159 W/m² -
1788280306 31.11° C 67% 1023.3 hPa 0 mm - 187 W/m² -
1788280002 30.56° C 66% 1023.2 hPa 0 mm - 491 W/m² -
1788279701 31.11° C 67% 1023.2 hPa 0 mm - 207 W/m² -
1788279400 31.67° C 64% 1023.3 hPa 0 mm - 789 W/m² -

* Rain latest hour (hover to see other rain measurements)
** Current wind speed in m/s (hover to see current wind gust speed)